Location: Balagbag Mahabang Kahoy
(14.1562°N, 120.9200°E)
Time: 04:34:56
(UTC+00:00)

Thor Agena Rocket - Pass Details

Date: 16 January 2026
Orbit: 755 x 802 km, 99.1° (Epoch: 14 February)

Event Time Altitude Azimuth Distance (km) Brightness Sun altitude
Rises 21:59:23 0° 14° (NNE) 3,250 6.7 -6.5°
Reaches altitude 10° 22:01:41 10° 15° (NNE) 2,329 6.0 -6.0°
Maximum altitude 22:06:50 83° 102° (ESE) 795 3.7 -4.8°
Drops below altitude 10° 22:12:02 10° 191° (S) 2,355 6.2 -3.7°
Sets 22:14:22 0° 192° (SSW) 3,288 6.9 -3.1°
